Location: Unspecified
(0.0000°N, 0.0000°E)
Time: 13:29:35
(UTC+00:00)

A-11 Canister half - Pass Details

Date: 03 October 2023
Orbit: 1515 x 1684 km, 47.2° (Epoch: 06 September)

Event Time Altitude Azimuth Distance (km) Brightness Sun altitude
Rises 13:11:41 0° 209° (SSW) 4,937 11.8 69.0°
Reaches altitude 10° 13:15:01 10° 204° (SSW) 3,947 11.5 68.2°
Maximum altitude 13:24:47 51° 130° (SE) 2,012 10.2 65.8°
Drops below altitude 10° 13:34:18 10° 57° (ENE) 3,868 11.0 63.4°
Sets 13:37:30 0° 52° (NE) 4,831 11.4 62.6°
